Year,Month,Day,Hour,Minute,Value (Times are PST for windspeed in km/hr)
2010,07,11,00,00,1.60
2010,07,11,00,01,1.70
2010,07,11,00,02,2.60
2010,07,11,00,03,2.90
2010,07,11,00,04,2.70
2010,07,11,00,05,2.90
2010,07,11,00,06,3.10
2010,07,11,00,07,3.50
2010,07,11,00,08,3.30
2010,07,11,00,09,3.10
2010,07,11,00,10,3.50
2010,07,11,00,11,2.10
2010,07,11,00,12,4.50
2010,07,11,00,13,3.90
2010,07,11,00,14,2.80
2010,07,11,00,15,3.90
2010,07,11,00,16,3.90
2010,07,11,00,17,1.20
2010,07,11,00,18,0.60
2010,07,11,00,19,2.20
2010,07,11,00,20,3.60
2010,07,11,00,21,3.70
2010,07,11,00,22,4.30
2010,07,11,00,23,3.40
2010,07,11,00,24,4.50
2010,07,11,00,25,2.00
2010,07,11,00,26,3.80
2010,07,11,00,27,4.00
2010,07,11,00,28,1.90
2010,07,11,00,29,1.00
2010,07,11,00,30,2.50
2010,07,11,00,31,0.40
2010,07,11,00,32,0.00
2010,07,11,00,33,0.00
2010,07,11,00,34,0.30
2010,07,11,00,35,0.00
2010,07,11,00,36,0.00
2010,07,11,00,37,0.00
2010,07,11,00,38,0.10
2010,07,11,00,39,0.20
2010,07,11,00,40,0.20
2010,07,11,00,41,0.00
2010,07,11,00,42,0.00
2010,07,11,00,43,0.40
2010,07,11,00,44,0.20
2010,07,11,00,45,0.30
2010,07,11,00,46,0.00
2010,07,11,00,47,0.00
2010,07,11,00,48,0.00
2010,07,11,00,49,0.00
2010,07,11,00,50,0.20
2010,07,11,00,51,0.70
2010,07,11,00,52,0.10
2010,07,11,00,53,0.00
2010,07,11,00,54,0.00
2010,07,11,00,55,0.00
2010,07,11,00,56,0.00
2010,07,11,00,57,0.30
2010,07,11,00,58,0.40
2010,07,11,00,59,0.00
2010,07,11,01,00,0.30
2010,07,11,01,01,0.00
2010,07,11,01,02,0.10
2010,07,11,01,03,0.10
2010,07,11,01,04,0.00
2010,07,11,01,05,0.00
2010,07,11,01,06,0.10
2010,07,11,01,07,0.10
2010,07,11,01,08,0.10
2010,07,11,01,09,0.30
2010,07,11,01,10,0.00
2010,07,11,01,11,0.20
2010,07,11,01,12,1.10
2010,07,11,01,13,0.00
2010,07,11,01,14,0.00
2010,07,11,01,15,0.10
2010,07,11,01,16,0.30
2010,07,11,01,17,0.00
2010,07,11,01,18,0.10
2010,07,11,01,19,0.30
2010,07,11,01,20,0.00
2010,07,11,01,21,0.00
2010,07,11,01,22,0.00
2010,07,11,01,23,0.00
2010,07,11,01,24,0.00
2010,07,11,01,25,0.00
2010,07,11,01,26,0.00
2010,07,11,01,27,0.00
2010,07,11,01,28,0.00
2010,07,11,01,29,1.10
2010,07,11,01,30,0.30
2010,07,11,01,31,0.20
2010,07,11,01,32,1.20
2010,07,11,01,33,0.90
2010,07,11,01,34,0.00
2010,07,11,01,35,0.10
2010,07,11,01,36,0.10
2010,07,11,01,37,0.00
2010,07,11,01,38,0.20
2010,07,11,01,39,0.00
2010,07,11,01,40,0.00
2010,07,11,01,41,1.10
2010,07,11,01,42,0.90
2010,07,11,01,43,0.20
2010,07,11,01,44,1.10
2010,07,11,01,45,1.20
2010,07,11,01,46,0.00
2010,07,11,01,47,0.10
2010,07,11,01,48,0.00
2010,07,11,01,49,0.10
2010,07,11,01,50,0.20
2010,07,11,01,51,0.20
2010,07,11,01,52,0.00
2010,07,11,01,53,0.00
2010,07,11,01,54,1.30
2010,07,11,01,55,0.70
2010,07,11,01,56,0.00
2010,07,11,01,57,0.00
2010,07,11,01,58,0.60
2010,07,11,01,59,0.20
2010,07,11,02,00,0.20
2010,07,11,02,01,0.20
2010,07,11,02,02,0.00
2010,07,11,02,03,0.00
2010,07,11,02,04,0.00
2010,07,11,02,05,0.00
2010,07,11,02,06,0.00
2010,07,11,02,07,0.00
2010,07,11,02,08,0.00
2010,07,11,02,09,0.00
2010,07,11,02,10,0.00
2010,07,11,02,11,0.00
2010,07,11,02,12,0.00
2010,07,11,02,13,0.00
2010,07,11,02,14,0.00
2010,07,11,02,15,0.00
2010,07,11,02,16,0.00
2010,07,11,02,17,0.00
2010,07,11,02,18,0.00
2010,07,11,02,19,0.00
2010,07,11,02,20,0.00
2010,07,11,02,21,0.00
2010,07,11,02,22,0.00
2010,07,11,02,23,0.00
2010,07,11,02,24,0.00
2010,07,11,02,25,0.00
2010,07,11,02,26,0.00
2010,07,11,02,27,0.00
2010,07,11,02,28,0.00
2010,07,11,02,29,0.00
2010,07,11,02,30,0.00
2010,07,11,02,31,0.00
2010,07,11,02,32,0.00
2010,07,11,02,33,0.00
2010,07,11,02,34,0.00
2010,07,11,02,35,0.00
2010,07,11,02,36,0.00
2010,07,11,02,37,0.10
2010,07,11,02,38,0.00
2010,07,11,02,39,0.00
2010,07,11,02,40,0.00
2010,07,11,02,41,0.00
2010,07,11,02,42,0.00
2010,07,11,02,43,0.00
2010,07,11,02,44,0.00
2010,07,11,02,45,0.00
2010,07,11,02,46,0.00
2010,07,11,02,47,0.00
2010,07,11,02,48,0.00
2010,07,11,02,49,0.00
2010,07,11,02,50,0.00
2010,07,11,02,51,0.00
2010,07,11,02,52,0.00
2010,07,11,02,53,0.00
2010,07,11,02,54,0.00
2010,07,11,02,55,0.00
2010,07,11,02,56,0.60
2010,07,11,02,57,0.20
2010,07,11,02,58,0.00
2010,07,11,02,59,0.00
2010,07,11,03,00,0.00
2010,07,11,03,01,0.10
2010,07,11,03,02,0.00
2010,07,11,03,03,0.00
2010,07,11,03,04,0.00
2010,07,11,03,05,0.00
2010,07,11,03,06,0.00
2010,07,11,03,07,0.00
2010,07,11,03,08,0.00
2010,07,11,03,09,0.00
2010,07,11,03,10,0.00
2010,07,11,03,11,0.00
2010,07,11,03,12,0.00
2010,07,11,03,13,0.00
2010,07,11,03,14,0.00
2010,07,11,03,15,0.00
2010,07,11,03,16,0.00
2010,07,11,03,17,0.00
2010,07,11,03,18,0.00
2010,07,11,03,19,0.00
2010,07,11,03,20,0.00
2010,07,11,03,21,0.00
2010,07,11,03,22,0.00
2010,07,11,03,23,0.00
2010,07,11,03,24,0.00
2010,07,11,03,25,0.00
2010,07,11,03,26,0.00
2010,07,11,03,27,0.00
2010,07,11,03,28,0.00
2010,07,11,03,29,0.00
2010,07,11,03,30,0.00
2010,07,11,03,31,0.00
2010,07,11,03,32,0.00
2010,07,11,03,33,0.00
2010,07,11,03,34,0.00
2010,07,11,03,35,0.00
2010,07,11,03,36,0.00
2010,07,11,03,37,0.00
2010,07,11,03,38,0.30
2010,07,11,03,39,0.30
2010,07,11,03,40,0.00
2010,07,11,03,41,0.00
2010,07,11,03,42,0.00
2010,07,11,03,43,0.00
2010,07,11,03,44,0.00
2010,07,11,03,45,0.00
2010,07,11,03,46,0.00
2010,07,11,03,47,0.00
2010,07,11,03,48,0.00
2010,07,11,03,49,0.00
2010,07,11,03,50,0.00
2010,07,11,03,51,0.00
2010,07,11,03,52,0.00
2010,07,11,03,53,0.00
2010,07,11,03,54,0.00
2010,07,11,03,55,0.00
2010,07,11,03,56,0.00
2010,07,11,03,57,0.00
2010,07,11,03,58,0.00
2010,07,11,03,59,0.10
2010,07,11,04,00,0.10
2010,07,11,04,01,0.00
2010,07,11,04,02,0.00
2010,07,11,04,03,0.00
2010,07,11,04,04,0.00
2010,07,11,04,05,0.00
2010,07,11,04,06,0.00
2010,07,11,04,07,0.00
2010,07,11,04,08,0.00
2010,07,11,04,09,0.00
2010,07,11,04,10,0.00
2010,07,11,04,11,0.00
2010,07,11,04,12,0.00
2010,07,11,04,13,0.10
2010,07,11,04,14,0.00
2010,07,11,04,15,0.00
2010,07,11,04,16,0.00
2010,07,11,04,17,0.00
2010,07,11,04,18,0.00
2010,07,11,04,19,0.00
2010,07,11,04,20,0.00
2010,07,11,04,21,0.00
2010,07,11,04,22,0.00
2010,07,11,04,23,0.00
2010,07,11,04,24,0.00
2010,07,11,04,25,0.00
2010,07,11,04,26,0.00
2010,07,11,04,27,0.00
2010,07,11,04,28,0.00
2010,07,11,04,29,0.00
2010,07,11,04,30,0.10
2010,07,11,04,31,0.00
2010,07,11,04,32,0.00
2010,07,11,04,33,0.00
2010,07,11,04,34,0.00
2010,07,11,04,35,0.00
2010,07,11,04,36,0.00
2010,07,11,04,37,0.30
2010,07,11,04,38,0.90
2010,07,11,04,39,1.40
2010,07,11,04,40,0.30
2010,07,11,04,41,0.00
2010,07,11,04,42,0.00
2010,07,11,04,43,0.00
2010,07,11,04,44,0.00
2010,07,11,04,45,0.00
2010,07,11,04,46,0.00
2010,07,11,04,47,0.00
2010,07,11,04,48,0.00
2010,07,11,04,49,0.00
2010,07,11,04,50,0.00
2010,07,11,04,51,0.00
2010,07,11,04,52,0.00
2010,07,11,04,53,0.00
2010,07,11,04,54,0.00
2010,07,11,04,55,0.00
2010,07,11,04,56,0.00
2010,07,11,04,57,0.00
2010,07,11,04,58,0.00
2010,07,11,04,59,0.00
2010,07,11,05,00,0.00
2010,07,11,05,01,0.00
2010,07,11,05,02,0.00
2010,07,11,05,03,0.00
2010,07,11,05,04,0.00
2010,07,11,05,05,0.00
2010,07,11,05,06,0.00
2010,07,11,05,07,0.00
2010,07,11,05,08,0.00
2010,07,11,05,09,0.00
2010,07,11,05,10,0.00
2010,07,11,05,11,0.00
2010,07,11,05,12,0.00
2010,07,11,05,13,0.00
2010,07,11,05,14,0.00
2010,07,11,05,15,0.00
2010,07,11,05,16,0.00
2010,07,11,05,17,0.00
2010,07,11,05,18,0.00
2010,07,11,05,19,0.00
2010,07,11,05,20,0.00
2010,07,11,05,21,0.00
2010,07,11,05,22,0.00
2010,07,11,05,23,0.00
2010,07,11,05,24,0.00
2010,07,11,05,25,0.00
2010,07,11,05,26,0.00
2010,07,11,05,27,0.00
2010,07,11,05,28,0.00
2010,07,11,05,29,0.00
2010,07,11,05,30,0.00
2010,07,11,05,31,0.00
2010,07,11,05,32,0.00
2010,07,11,05,33,0.00
2010,07,11,05,34,0.00
2010,07,11,05,35,0.00
2010,07,11,05,36,0.00
2010,07,11,05,37,0.00
2010,07,11,05,38,0.00
2010,07,11,05,39,0.00
2010,07,11,05,40,0.00
2010,07,11,05,41,0.00
2010,07,11,05,42,0.00
2010,07,11,05,43,0.00
2010,07,11,05,44,0.00
2010,07,11,05,45,0.00
2010,07,11,05,46,0.00
2010,07,11,05,47,0.00
2010,07,11,05,48,0.00
2010,07,11,05,49,0.00
2010,07,11,05,50,0.00
2010,07,11,05,51,0.00
2010,07,11,05,52,0.00
2010,07,11,05,53,0.00
2010,07,11,05,54,0.00
2010,07,11,05,55,0.00
2010,07,11,05,56,0.00
2010,07,11,05,57,0.30
2010,07,11,05,58,0.00
2010,07,11,05,59,0.20
2010,07,11,06,00,0.20
2010,07,11,06,01,1.50
2010,07,11,06,02,2.10
2010,07,11,06,03,1.90
2010,07,11,06,04,1.30
2010,07,11,06,05,1.80
2010,07,11,06,06,2.40
2010,07,11,06,07,1.60
2010,07,11,06,08,2.30
2010,07,11,06,09,2.80
2010,07,11,06,10,2.00
2010,07,11,06,11,2.20
2010,07,11,06,12,0.80
2010,07,11,06,13,2.00
2010,07,11,06,14,0.70
2010,07,11,06,15,0.00
2010,07,11,06,16,0.00
2010,07,11,06,17,0.00
2010,07,11,06,18,0.10
2010,07,11,06,19,0.00
2010,07,11,06,20,0.00
2010,07,11,06,21,0.20
2010,07,11,06,22,0.00
2010,07,11,06,23,0.30
2010,07,11,06,24,0.30
2010,07,11,06,25,1.10
2010,07,11,06,26,0.10
2010,07,11,06,27,0.10
2010,07,11,06,28,0.30
2010,07,11,06,29,0.10
2010,07,11,06,30,0.00
2010,07,11,06,31,0.00
2010,07,11,06,32,0.00
2010,07,11,06,33,0.00
2010,07,11,06,34,0.60
2010,07,11,06,35,0.20
2010,07,11,06,36,0.90
2010,07,11,06,37,0.30
2010,07,11,06,38,1.40
2010,07,11,06,39,1.20
2010,07,11,06,40,0.80
2010,07,11,06,41,1.10
2010,07,11,06,42,0.10
2010,07,11,06,43,1.10
2010,07,11,06,44,0.50
2010,07,11,06,45,0.40
2010,07,11,06,46,0.10
2010,07,11,06,47,3.00
2010,07,11,06,48,2.30
2010,07,11,06,49,2.50
2010,07,11,06,50,2.70
2010,07,11,06,51,2.50
2010,07,11,06,52,1.40
2010,07,11,06,53,1.40
2010,07,11,06,54,0.30
2010,07,11,06,55,1.70
2010,07,11,06,56,0.60
2010,07,11,06,57,0.90
2010,07,11,06,58,0.40
2010,07,11,06,59,1.90
2010,07,11,07,00,0.90
2010,07,11,07,01,1.90
2010,07,11,07,02,1.90
2010,07,11,07,03,0.60
2010,07,11,07,04,0.90
2010,07,11,07,05,0.00
2010,07,11,07,06,0.10
2010,07,11,07,07,0.00
2010,07,11,07,08,0.00
2010,07,11,07,09,0.10
2010,07,11,07,10,0.00
2010,07,11,07,11,0.00
2010,07,11,07,12,0.00
2010,07,11,07,13,0.00
2010,07,11,07,14,0.00
2010,07,11,07,15,0.40
2010,07,11,07,16,1.70
2010,07,11,07,17,1.40
2010,07,11,07,18,0.80
2010,07,11,07,19,2.00
2010,07,11,07,20,1.30
2010,07,11,07,21,2.20
2010,07,11,07,22,2.00
2010,07,11,07,23,1.70
2010,07,11,07,24,1.90
2010,07,11,07,25,0.80
2010,07,11,07,26,0.50
2010,07,11,07,27,1.70
2010,07,11,07,28,1.40
2010,07,11,07,29,2.90
2010,07,11,07,30,1.10
2010,07,11,07,31,0.90
2010,07,11,07,32,1.20
2010,07,11,07,33,1.20
2010,07,11,07,34,0.30
2010,07,11,07,35,0.00
2010,07,11,07,36,0.50
2010,07,11,07,37,0.10
2010,07,11,07,38,0.00
2010,07,11,07,39,0.00
2010,07,11,07,40,1.50
2010,07,11,07,41,1.50
2010,07,11,07,42,0.10
2010,07,11,07,43,1.00
2010,07,11,07,44,1.00
2010,07,11,07,45,1.20
2010,07,11,07,46,0.00
2010,07,11,07,47,0.20
2010,07,11,07,48,0.40
2010,07,11,07,49,0.00
2010,07,11,07,50,1.40
2010,07,11,07,51,1.90
2010,07,11,07,52,0.70
2010,07,11,07,53,2.20
2010,07,11,07,54,3.70
2010,07,11,07,55,3.20
2010,07,11,07,56,4.10
2010,07,11,07,57,1.30
2010,07,11,07,58,0.50
2010,07,11,07,59,0.10
2010,07,11,08,00,0.00
2010,07,11,08,01,0.00
2010,07,11,08,02,1.30
2010,07,11,08,03,0.90
2010,07,11,08,04,2.10
2010,07,11,08,05,2.30
2010,07,11,08,06,1.50
2010,07,11,08,07,2.00
2010,07,11,08,08,0.80
2010,07,11,08,09,0.90
2010,07,11,08,10,0.70
2010,07,11,08,11,0.60
2010,07,11,08,12,2.30
2010,07,11,08,13,1.90
2010,07,11,08,14,0.40
2010,07,11,08,15,0.20
2010,07,11,08,16,1.40
2010,07,11,08,17,1.90
2010,07,11,08,18,0.70
2010,07,11,08,19,0.20
2010,07,11,08,20,0.10
2010,07,11,08,21,0.70
2010,07,11,08,22,0.30
2010,07,11,08,23,0.30
2010,07,11,08,24,0.20
2010,07,11,08,25,0.70
2010,07,11,08,26,0.60
2010,07,11,08,27,0.50
2010,07,11,08,28,0.00
2010,07,11,08,29,1.30
2010,07,11,08,30,1.90
2010,07,11,08,31,2.00
2010,07,11,08,32,0.60
2010,07,11,08,33,0.30
2010,07,11,08,34,0.00
2010,07,11,08,35,0.00
2010,07,11,08,36,0.00
2010,07,11,08,37,0.00
2010,07,11,08,38,0.00
2010,07,11,08,39,0.10
2010,07,11,08,40,0.30
2010,07,11,08,41,0.40
2010,07,11,08,42,1.90
2010,07,11,08,43,0.80
2010,07,11,08,44,0.00
2010,07,11,08,45,0.10
2010,07,11,08,46,0.10
2010,07,11,08,47,0.10
2010,07,11,08,48,0.10
2010,07,11,08,49,0.30
2010,07,11,08,50,2.80
2010,07,11,08,51,3.20
2010,07,11,08,52,3.00
2010,07,11,08,53,5.10
2010,07,11,08,54,2.40
2010,07,11,08,55,2.30
2010,07,11,08,56,3.00
2010,07,11,08,57,0.40
2010,07,11,08,58,4.30
2010,07,11,08,59,1.10
2010,07,11,09,00,2.70
2010,07,11,09,01,3.70
2010,07,11,09,02,4.90
2010,07,11,09,03,3.20
2010,07,11,09,04,5.10
2010,07,11,09,05,2.80
2010,07,11,09,06,1.00
2010,07,11,09,07,1.30
2010,07,11,09,08,4.20
2010,07,11,09,09,5.00
2010,07,11,09,10,1.60
2010,07,11,09,11,0.60
2010,07,11,09,12,0.10
2010,07,11,09,13,1.20
2010,07,11,09,14,2.60
2010,07,11,09,15,1.60
2010,07,11,09,16,0.40
2010,07,11,09,17,0.10
2010,07,11,09,18,1.40
2010,07,11,09,19,4.30
2010,07,11,09,20,3.60
2010,07,11,09,21,2.20
2010,07,11,09,22,4.80
2010,07,11,09,23,1.50
2010,07,11,09,24,0.20
2010,07,11,09,25,2.60
2010,07,11,09,26,2.30
2010,07,11,09,27,3.60
2010,07,11,09,28,4.90
2010,07,11,09,29,0.80
2010,07,11,09,30,2.70
2010,07,11,09,31,2.60
2010,07,11,09,32,3.40
2010,07,11,09,33,4.20
2010,07,11,09,34,7.20
2010,07,11,09,35,2.70
2010,07,11,09,36,4.90
2010,07,11,09,37,1.90
2010,07,11,09,38,5.30
2010,07,11,09,39,3.50
2010,07,11,09,40,4.30
2010,07,11,09,41,11.30
2010,07,11,09,42,10.80
2010,07,11,09,43,11.70
2010,07,11,09,44,11.30
2010,07,11,09,45,11.10
2010,07,11,09,46,9.00
2010,07,11,09,47,6.90
2010,07,11,09,48,9.50
2010,07,11,09,49,9.90
2010,07,11,09,50,12.50
2010,07,11,09,51,7.30
2010,07,11,09,52,9.70
2010,07,11,09,53,7.90
2010,07,11,09,54,7.90
2010,07,11,09,55,8.70
2010,07,11,09,56,8.70
2010,07,11,09,57,8.20
2010,07,11,09,58,10.80
2010,07,11,09,59,11.20
2010,07,11,10,00,9.00
2010,07,11,10,01,10.30
2010,07,11,10,02,8.00
2010,07,11,10,03,8.00
2010,07,11,10,04,7.00
2010,07,11,10,05,11.30
2010,07,11,10,06,10.00
2010,07,11,10,07,10.60
2010,07,11,10,08,16.30
2010,07,11,10,09,15.90
2010,07,11,10,10,16.90
2010,07,11,10,11,10.50
2010,07,11,10,12,6.10
2010,07,11,10,13,10.50
2010,07,11,10,14,13.10
2010,07,11,10,15,15.70
2010,07,11,10,16,12.90
2010,07,11,10,17,8.00
2010,07,11,10,18,8.80
2010,07,11,10,19,11.20
2010,07,11,10,20,13.50
2010,07,11,10,21,12.50
2010,07,11,10,22,10.10
2010,07,11,10,23,10.80
2010,07,11,10,24,6.10
2010,07,11,10,25,5.20
2010,07,11,10,26,8.80
2010,07,11,10,27,6.60
2010,07,11,10,28,5.80
2010,07,11,10,29,13.00
2010,07,11,10,30,10.30
2010,07,11,10,31,8.60
2010,07,11,10,32,9.10
2010,07,11,10,33,6.20
2010,07,11,10,34,6.30
2010,07,11,10,35,8.90
2010,07,11,10,36,7.70
2010,07,11,10,37,8.10
2010,07,11,10,38,8.60
2010,07,11,10,39,9.70
2010,07,11,10,40,10.50
2010,07,11,10,41,9.20
2010,07,11,10,42,13.00
2010,07,11,10,43,9.30
2010,07,11,10,44,5.40
2010,07,11,10,45,6.80
2010,07,11,10,46,8.70
2010,07,11,10,47,6.90
2010,07,11,10,48,5.80
2010,07,11,10,49,7.30
2010,07,11,10,50,9.60
2010,07,11,10,51,9.30
2010,07,11,10,52,9.40
2010,07,11,10,53,12.50
2010,07,11,10,54,12.20
2010,07,11,10,55,11.20
2010,07,11,10,56,13.50
2010,07,11,10,57,8.10
2010,07,11,10,58,8.60
2010,07,11,10,59,9.70
2010,07,11,11,00,6.80
2010,07,11,11,01,7.90
2010,07,11,11,02,6.30
2010,07,11,11,03,5.40
2010,07,11,11,04,7.40
2010,07,11,11,05,6.40
2010,07,11,11,06,7.50
2010,07,11,11,07,12.60
2010,07,11,11,08,8.60
2010,07,11,11,09,8.60
2010,07,11,11,10,7.70
2010,07,11,11,11,9.10
2010,07,11,11,12,6.70
2010,07,11,11,13,8.70
2010,07,11,11,14,11.40
2010,07,11,11,15,12.00
2010,07,11,11,16,9.00
2010,07,11,11,17,8.70
2010,07,11,11,18,5.50
2010,07,11,11,19,6.10
2010,07,11,11,20,11.40
2010,07,11,11,21,6.60
2010,07,11,11,22,8.10
2010,07,11,11,23,14.30
2010,07,11,11,24,9.70
2010,07,11,11,25,12.10
2010,07,11,11,26,16.80
2010,07,11,11,27,12.30
2010,07,11,11,28,11.30
2010,07,11,11,29,5.60
2010,07,11,11,30,7.60
2010,07,11,11,31,13.00
2010,07,11,11,32,15.80
2010,07,11,11,33,11.40
2010,07,11,11,34,16.10
2010,07,11,11,35,16.80
2010,07,11,11,36,11.70
2010,07,11,11,37,10.70
2010,07,11,11,38,11.30
2010,07,11,11,39,15.80
2010,07,11,11,40,9.70
2010,07,11,11,41,14.50
2010,07,11,11,42,13.00
2010,07,11,11,43,12.30
2010,07,11,11,44,12.10
2010,07,11,11,45,12.40
2010,07,11,11,46,10.00
2010,07,11,11,47,13.50
2010,07,11,11,48,12.70
2010,07,11,11,49,11.10
2010,07,11,11,50,9.10
2010,07,11,11,51,8.70
2010,07,11,11,52,12.40
2010,07,11,11,53,10.30
2010,07,11,11,54,8.60
2010,07,11,11,55,13.60
2010,07,11,11,56,12.10
2010,07,11,11,57,14.60
2010,07,11,11,58,13.50
2010,07,11,11,59,15.00
2010,07,11,12,00,17.00
2010,07,11,12,01,13.50
2010,07,11,12,02,11.20
2010,07,11,12,03,5.60
2010,07,11,12,04,10.50
2010,07,11,12,05,16.80
2010,07,11,12,06,13.00
2010,07,11,12,07,9.70
2010,07,11,12,08,13.70
2010,07,11,12,09,15.00
2010,07,11,12,10,13.00
2010,07,11,12,11,12.70
2010,07,11,12,12,14.60
2010,07,11,12,13,14.20
2010,07,11,12,14,17.60
2010,07,11,12,15,16.80
2010,07,11,12,16,9.80
2010,07,11,12,17,7.10
2010,07,11,12,18,8.60
2010,07,11,12,19,15.80
2010,07,11,12,20,15.20
2010,07,11,12,21,14.50
2010,07,11,12,22,19.10
2010,07,11,12,23,17.40
2010,07,11,12,24,19.60
2010,07,11,12,25,16.80
2010,07,11,12,26,16.80
2010,07,11,12,27,17.10
2010,07,11,12,28,16.20
2010,07,11,12,29,15.00
2010,07,11,12,30,20.60
2010,07,11,12,31,18.20
2010,07,11,12,32,16.20
2010,07,11,12,33,14.60
2010,07,11,12,34,18.50
2010,07,11,12,35,17.20
2010,07,11,12,36,11.70
2010,07,11,12,37,20.60
2010,07,11,12,38,11.80
2010,07,11,12,39,18.60
2010,07,11,12,40,14.30
2010,07,11,12,41,21.10
2010,07,11,12,42,14.90
2010,07,11,12,43,14.30
2010,07,11,12,44,17.90
2010,07,11,12,45,17.50
2010,07,11,12,46,19.50
2010,07,11,12,47,19.40
2010,07,11,12,48,19.30
2010,07,11,12,49,14.70
2010,07,11,12,50,16.50
2010,07,11,12,51,20.80
2010,07,11,12,52,12.50
2010,07,11,12,53,18.10
2010,07,11,12,54,21.30
2010,07,11,12,55,18.70
2010,07,11,12,56,9.90
2010,07,11,12,57,19.20
2010,07,11,12,58,15.50
2010,07,11,12,59,19.30
2010,07,11,13,00,20.70
2010,07,11,13,01,20.50
2010,07,11,13,02,20.10
2010,07,11,13,03,15.20
2010,07,11,13,04,19.20
2010,07,11,13,05,11.50
2010,07,11,13,06,15.30
2010,07,11,13,07,13.00
2010,07,11,13,08,12.40
2010,07,11,13,09,12.30
2010,07,11,13,10,13.50
2010,07,11,13,11,15.70
2010,07,11,13,12,15.30
2010,07,11,13,13,12.50
2010,07,11,13,14,15.20
2010,07,11,13,15,15.30
2010,07,11,13,16,18.10
2010,07,11,13,17,11.00
2010,07,11,13,18,10.10
2010,07,11,13,19,9.10
2010,07,11,13,20,12.80
2010,07,11,13,21,21.70
2010,07,11,13,22,16.70
2010,07,11,13,23,16.00
2010,07,11,13,24,15.50
2010,07,11,13,25,13.00
2010,07,11,13,26,12.90
2010,07,11,13,27,16.90
2010,07,11,13,28,13.50
2010,07,11,13,29,18.00
2010,07,11,13,30,17.60
2010,07,11,13,31,18.30
2010,07,11,13,32,19.40
2010,07,11,13,33,20.00
2010,07,11,13,34,19.00
2010,07,11,13,35,14.60
2010,07,11,13,36,18.00
2010,07,11,13,37,16.80
2010,07,11,13,38,17.00
2010,07,11,13,39,13.60
2010,07,11,13,40,17.90
2010,07,11,13,41,16.40
2010,07,11,13,42,17.50
2010,07,11,13,43,16.30
2010,07,11,13,44,16.70
2010,07,11,13,45,12.40
2010,07,11,13,46,14.30
2010,07,11,13,47,17.50
2010,07,11,13,48,24.10
2010,07,11,13,49,27.90
2010,07,11,13,50,24.70
2010,07,11,13,51,21.90
2010,07,11,13,52,14.30
2010,07,11,13,53,23.60
2010,07,11,13,54,21.50
2010,07,11,13,55,29.60
2010,07,11,13,56,29.50
2010,07,11,13,57,21.90
2010,07,11,13,58,18.00
2010,07,11,13,59,20.90
2010,07,11,14,00,21.30
2010,07,11,14,01,23.00
2010,07,11,14,02,24.30
2010,07,11,14,03,24.60
2010,07,11,14,04,23.00
2010,07,11,14,05,20.10
2010,07,11,14,06,25.80
2010,07,11,14,07,25.00
2010,07,11,14,08,13.60
2010,07,11,14,09,18.10
2010,07,11,14,10,18.60
2010,07,11,14,11,22.90
2010,07,11,14,12,25.20
2010,07,11,14,13,21.60
2010,07,11,14,14,16.50
2010,07,11,14,15,16.60
2010,07,11,14,16,24.20
2010,07,11,14,17,21.20
2010,07,11,14,18,24.50
2010,07,11,14,19,22.50
2010,07,11,14,20,23.00
2010,07,11,14,21,15.20
2010,07,11,14,22,17.10
2010,07,11,14,23,9.70
2010,07,11,14,24,8.60
2010,07,11,14,25,12.00
2010,07,11,14,26,20.40
2010,07,11,14,27,21.50
2010,07,11,14,28,20.70
2010,07,11,14,29,20.60
2010,07,11,14,30,18.30
2010,07,11,14,31,22.10
2010,07,11,14,32,19.60
2010,07,11,14,33,16.40
2010,07,11,14,34,17.40
2010,07,11,14,35,14.80
2010,07,11,14,36,15.80
2010,07,11,14,37,16.40
2010,07,11,14,38,12.30
2010,07,11,14,39,18.10
2010,07,11,14,40,13.60
2010,07,11,14,41,19.90
2010,07,11,14,42,16.90
2010,07,11,14,43,12.20
2010,07,11,14,44,17.20
2010,07,11,14,45,17.90
2010,07,11,14,46,20.70
2010,07,11,14,47,21.20
2010,07,11,14,48,17.90
2010,07,11,14,49,19.20
2010,07,11,14,50,15.20
2010,07,11,14,51,11.80
2010,07,11,14,52,12.30
2010,07,11,14,53,12.50
2010,07,11,14,54,9.00
2010,07,11,14,55,20.80
2010,07,11,14,56,18.20
2010,07,11,14,57,22.60
2010,07,11,14,58,13.10
2010,07,11,14,59,14.20
2010,07,11,15,00,5.50
2010,07,11,15,01,14.20
2010,07,11,15,02,16.20
2010,07,11,15,03,11.40
2010,07,11,15,04,22.20
2010,07,11,15,05,16.30
2010,07,11,15,06,12.40
2010,07,11,15,07,16.50
2010,07,11,15,08,11.80
2010,07,11,15,09,20.20
2010,07,11,15,10,21.80
2010,07,11,15,11,13.50
2010,07,11,15,12,14.60
2010,07,11,15,13,16.70
2010,07,11,15,14,18.00
2010,07,11,15,15,9.90
2010,07,11,15,16,8.40
2010,07,11,15,17,9.00
2010,07,11,15,18,16.70
2010,07,11,15,19,10.70
2010,07,11,15,20,5.80
2010,07,11,15,21,9.20
2010,07,11,15,22,7.00
2010,07,11,15,23,9.30
2010,07,11,15,24,9.20
2010,07,11,15,25,10.70
2010,07,11,15,26,15.20
2010,07,11,15,27,15.80
2010,07,11,15,28,11.30
2010,07,11,15,29,9.60
2010,07,11,15,30,13.60
2010,07,11,15,31,7.70
2010,07,11,15,32,6.90
2010,07,11,15,33,9.40
2010,07,11,15,34,7.40
2010,07,11,15,35,11.40
2010,07,11,15,36,10.00
2010,07,11,15,37,11.70
2010,07,11,15,38,14.50
2010,07,11,15,39,15.40
2010,07,11,15,40,13.40
2010,07,11,15,41,15.90
2010,07,11,15,42,10.60
2010,07,11,15,43,11.40
2010,07,11,15,44,6.20
2010,07,11,15,45,9.90
2010,07,11,15,46,11.30
2010,07,11,15,47,11.20
2010,07,11,15,48,11.70
2010,07,11,15,49,10.70
2010,07,11,15,50,14.00
2010,07,11,15,51,12.90
2010,07,11,15,52,16.40
2010,07,11,15,53,13.50
2010,07,11,15,54,21.10
2010,07,11,15,55,20.30
2010,07,11,15,56,19.90
2010,07,11,15,57,17.70
2010,07,11,15,58,14.60
2010,07,11,15,59,14.70
2010,07,11,16,00,17.90
2010,07,11,16,01,17.40
2010,07,11,16,02,15.00
2010,07,11,16,03,13.80
2010,07,11,16,04,15.90
2010,07,11,16,05,13.10
2010,07,11,16,06,10.80
2010,07,11,16,07,12.10
2010,07,11,16,08,14.50
2010,07,11,16,09,16.40
2010,07,11,16,10,17.40
2010,07,11,16,11,13.40
2010,07,11,16,12,12.70
2010,07,11,16,13,15.80
2010,07,11,16,14,16.30
2010,07,11,16,15,10.70
2010,07,11,16,16,11.40
2010,07,11,16,17,13.50
2010,07,11,16,18,13.00
2010,07,11,16,19,12.60
2010,07,11,16,20,17.40
2010,07,11,16,21,17.30
2010,07,11,16,22,17.00
2010,07,11,16,23,13.80
2010,07,11,16,24,14.10
2010,07,11,16,25,13.10
2010,07,11,16,26,12.50
2010,07,11,16,27,14.60
2010,07,11,16,28,14.40
2010,07,11,16,29,13.60
2010,07,11,16,30,16.20
2010,07,11,16,31,9.70
2010,07,11,16,32,15.00
2010,07,11,16,33,11.40
2010,07,11,16,34,16.70
2010,07,11,16,35,13.50
2010,07,11,16,36,17.40
2010,07,11,16,37,17.90
2010,07,11,16,38,17.90
2010,07,11,16,39,15.30
2010,07,11,16,40,13.20
2010,07,11,16,41,17.50
2010,07,11,16,42,14.90
2010,07,11,16,43,14.10
2010,07,11,16,44,14.70
2010,07,11,16,45,15.50
2010,07,11,16,46,16.10
2010,07,11,16,47,11.70
2010,07,11,16,48,15.00
2010,07,11,16,49,10.20
2010,07,11,16,50,12.90
2010,07,11,16,51,11.10
2010,07,11,16,52,11.00
2010,07,11,16,53,9.00
2010,07,11,16,54,8.00
2010,07,11,16,55,11.60
2010,07,11,16,56,8.70
2010,07,11,16,57,16.30
2010,07,11,16,58,14.70
2010,07,11,16,59,13.90
2010,07,11,17,00,15.30
2010,07,11,17,01,15.80
2010,07,11,17,02,19.30
2010,07,11,17,03,16.00
2010,07,11,17,04,15.10
2010,07,11,17,05,6.20
2010,07,11,17,06,17.20
2010,07,11,17,07,11.40
2010,07,11,17,08,8.40
2010,07,11,17,09,16.10
2010,07,11,17,10,15.10
2010,07,11,17,11,8.60
2010,07,11,17,12,15.20
2010,07,11,17,13,12.40
2010,07,11,17,14,9.10
2010,07,11,17,15,9.20
2010,07,11,17,16,14.60
2010,07,11,17,17,16.90
2010,07,11,17,18,16.80
2010,07,11,17,19,13.80
2010,07,11,17,20,12.40
2010,07,11,17,21,9.80
2010,07,11,17,22,14.10
2010,07,11,17,23,18.80
2010,07,11,17,24,18.00
2010,07,11,17,25,14.60
2010,07,11,17,26,15.00
2010,07,11,17,27,14.60
2010,07,11,17,28,18.30
2010,07,11,17,29,15.10
2010,07,11,17,30,15.70
2010,07,11,17,31,21.60
2010,07,11,17,32,18.80
2010,07,11,17,33,11.40
2010,07,11,17,34,9.20
2010,07,11,17,35,15.90
2010,07,11,17,36,16.50
2010,07,11,17,37,14.20
2010,07,11,17,38,14.80
2010,07,11,17,39,13.20
2010,07,11,17,40,10.30
2010,07,11,17,41,8.50
2010,07,11,17,42,7.50
2010,07,11,17,43,12.50
2010,07,11,17,44,15.50
2010,07,11,17,45,14.90
2010,07,11,17,46,16.40
2010,07,11,17,47,14.90
2010,07,11,17,48,17.80
2010,07,11,17,49,19.20